Weather in Burtunay

Russia / Republic of Dagestan     42°59′23″N   46°37′48″E
temp.,
°C
wind,
m/s
gust,
m/s
humid.,
%
clouds,
%
prec.,
mm/h
press.,
hPa
HPBL,
m
7 may, fri
fri700:00+8sse22803 0.0 101420
03:00+8sw1179100 0.0 101312
06:00+10wnw118164 0.0 101464
09:00+14nne327082 0.0 1015536
12:00+15nne336887 0.3 1016910
15:00+15n3373100 0.5 1016785
18:00+13n237759 0.0 1017281
21:00+10wsw227963 0.0 101924
8 may, sat
sat800:00+9sw325717 0.0 102019
03:00+9ssw22565 0.0 101915
06:00+11s22540 0.0 101939
09:00+16ese34475 0.0 1017837
12:00+19e44509 0.0 10141194
15:00+19e4460100 0.0 1013833
18:00+16ese237566 0.0 1012156
21:00+14sw117998 0.0 101212
9 may, sun
sun900:00+12s11851 0.0 101115
03:00+12sw22735 0.3 101014
06:00+14sw1163100 0.0 100923
09:00+18nne2162100 0.0 1008452
12:00+18n447331 0.0 1008707
15:00+18nw556425 0.3 1008969
18:00+10wnw91491100 1.1 1013786
21:00+5wnw81490100 1.8 1018833
10 may, mon
mon1000:00+3w91586100 0.5 1020950
03:00+4w81671100 0.6 10191271
06:00+4wnw61378100 1.8 10221288
09:00+5w51068100 2.0 10221227
12:00+10nw674755 0.1 10202055
15:00+9nw335489 0.1 10191495
18:00+7sse227352 0.4 1020266
21:00+6sse227434 0.5 102147
11 may, tue
tue1100:00+5wnw017499 0.0 102012
03:00+4nw128392 0.1 1020195
06:00+5ene118149 0.0 1020248
09:00+5ne218382 0.1 1019540
12:00+10ese446089 0.1 10161132
15:00+10e326364 0.1 1015930
18:00+9e227539 0.0 1017387
21:00+6s22845 0.0 101821